Regional Weather Roundup
Issued by NWS Northern Indiana

Home | Current Version | Previous Version | Graphics & Text | Print | Product List | Glossary On
Versions: 1 2 3 4 5 6 7 8 9 10 11 12 13 14 15 16 17 18 19 20 21 22 23 24 25 26 27 28 29 30 31 32 33 34 35 36 37 38 39 40 41 42 43 44 45 46 47 48 49 50
000
ASUS43 KIWX 020910
RWRIWX

KIWX WEATHER ROUNDUP
NATIONAL WEATHER SERVICE NORTHERN INDIANA
500 AM EDT THU JUL 02 2015

NOTE: "FAIR" INDICATES FEW OR NO CLOUDS BELOW 12,000 FEET WITH NO
SIGNIFICANT WEATHER AND/OR OBSTRUCTIONS TO VISIBILITY.

* THESE STATIONS ARE NOT UNDER NWS QUALITY CONTROL. THEY ALSO MAY NOT
  REPORT WEATHER SUCH AS PRECIPITATION OR FOG.

INZ001>027-021000-
NORTHERN INDIANA

CITY           SKY/WX    TMP DP  RH WIND       PRES   REMARKS
VALPARAISO     MOCLDY    55  53  93 N5        29.97S
SOUTH BEND     PTCLDY    54  52  93 N8        29.97F
GOSHEN         MOCLDY    56  53  90 N5        29.95F
ANGOLA*          N/A     55  43  62 CALM      29.96S
FORT WAYNE     CLOUDY    59  55  87 N5        29.94F
PERU/GRISSOM   CLOUDY    58  54  88 N8        29.92F

$$
INZ028>050-021000-
CENTRAL INDIANA

CITY           SKY/WX    TMP DP  RH WIND       PRES   REMARKS
LAFAYETTE      CLOUDY    58  52  80 NE12      29.93S
KOKOMO*        CLOUDY    59  54  82 NE7       29.92F
MUNCIE*        CLOUDY    62  56  80 NE6       29.91F
INDIANAPOLIS   CLOUDY    62  54  74 NE10      29.88S

$$
MIZ043>046-050>051-056>058-064>065-071>073-077>080-021000-
SOUTHWEST LOWER MICHIGAN

CITY           SKY/WX    TMP DP  RH WIND       PRES   REMARKS
BATTLE CREEK   CLEAR     55  52  89 NE5       29.99R
BENTON HARBOR  CLEAR     50  49  96 CALM      29.98S
COLDWATER*     PTCLDY    54  53  99 NE6       29.96F
HILLSDALE*     PTCLDY    53  53 100 NE3       29.96F FOG
HOLLAND        CLEAR     53  51  93 CALM      30.00S
GRAND RAPIDS   CLEAR     53  51  93 NE3       29.99S
KALAMAZOO      CLEAR     54  51  90 NE5       29.99R
STURGIS*       PTCLDY    54  54 100 NE8       29.96S
THREE RIVERS*  FAIR      54  53  95 CALM      29.97S

$$
OHZ001>008-015>018-024>025-021000-
NORTHWEST OHIO

CITY           SKY/WX    TMP DP  RH WIND       PRES   REMARKS
DEFIANCE       CLOUDY    61  55  81 NE3       29.94F
FINDLAY        CLOUDY    64  60  87 NE7       29.93S
TOLEDO EXPRESS PTCLDY    60  57  89 NE5       29.94F
TOLEDO METCALF PTCLDY    63  59  87 NE5       29.95F
LIMA           CLOUDY    61  58  90 NE3       29.92F

$$
AND FOR LAKE MICHIGAN COASTAL AND OPEN LAKE BUOY OBSERVATIONS

STATION/POSITION TEMP    WIND        PRES    VSBY  WAVE
                 AIR SEA DIR/SP/G                  HT/PER
                 (F)     (DEG/KT/KT) (MB)    (MI)  (FT/S)
CALUMET HARBOR    56     340/  7/ 11   N/A
MICHIGAN CITY     58      20/ 11/ 12   N/A
BURNS HARBOR      60      50/ 10/ 12 1015.6F
SAINT JOSEPH      54      10/  2/  5   N/A
4 MI NW BRIDGMAN  58 63                N/A           3/ 5
MICHIGAN CITY     60 64   50/ 10/ 14   N/A           3/ 5

$$
&&



USA.gov is the U.S. government's official web portal to all federal, state and local government web resources and services.